Regional Weather Roundup
Issued by NWS Little Rock, AR

Home | Current Version | Previous Version | Graphics & Text | Print | Product List | Glossary On
Versions: 1 2 3 4 5 6 7 8 9 10 11 12 13 14 15 16 17 18 19 20 21 22 23 24 25 26 27 28 29 30 31
000
ASUS44 KLZK 081812
RWRLZK

WEATHER ROUNDUP FOR ARKANSAS
NATIONAL WEATHER SERVICE LITTLE ROCK AR
1200 PM CST THU DEC 08 2016

NOTE: "FAIR" INDICATES FEW OR NO CLOUDS BELOW 12,000 FEET WITH NO
SIGNIFICANT WEATHER AND/OR OBSTRUCTIONS TO VISIBILITY.

ARZ001-003-010-029-081900-
NORTHWEST ARKANSAS

CITY           SKY/WX    TMP DP  RH WIND       PRES   REMARKS
FAYETTEVILLE   SUNNY     28  10  46 VRB6      30.60F WCI  22
6HR MIN TEMP:  18; 6HR MAX TEMP:  28;

FORT SMITH     PTSUNNY   34   9  35 W9        30.63F WCI  27
6HR MIN TEMP:  27; 6HR MAX TEMP:  34;

HARRISON       MOSUNNY   28  10  46 NW8G21    30.55F WCI  20
6HR MIN TEMP:  20; 6HR MAX TEMP:  28;

BENTONVILLE    SUNNY     27   7  43 NW12      30.61F WCI  16
6HR MIN TEMP:  19; 6HR MAX TEMP:  27;

ROGERS         SUNNY     25  11  55 NW9       30.59F WCI  15
6HR MIN TEMP:  18; 6HR MAX TEMP:  26;

SILOAM SPGS    SUNNY     27  10  50 NW8       30.61F WCI  18
6HR MIN TEMP:  18; 6HR MAX TEMP:  27;

HIGHFILL       MOSUNNY   27   9  46 NW10      30.60F WCI  17
6HR MIN TEMP:  18; 6HR MAX TEMP:  27;

SPRINGDALE     SUNNY     27  10  50 NW8       30.61F WCI  18
$$

ARZ004-005-016-081900-
NORTH CENTRAL ARKANSAS

CITY           SKY/WX    TMP DP  RH WIND       PRES   REMARKS
BATESVILLE     CLOUDY    34  12  40 NW6       30.56F WCI  29
6HR MIN TEMP:  28; 6HR MAX TEMP:  34;

FLIPPIN        SUNNY     30   7  37 N10       30.55F WCI  21
6HR MIN TEMP:  25; 6HR MAX TEMP:  30;

MTN HOME       SUNNY     28  10  46 VRB7G17   30.55F WCI  21
6HR MIN TEMP:  22; 6HR MAX TEMP:  30;

$$

ARZ040-041-081900-
WEST CENTRAL ARKANSAS

CITY           SKY/WX    TMP DP  RH WIND       PRES   REMARKS
MENA           CLOUDY    34  16  47 N7        30.56F WCI  28
MOUNT IDA      MOSUNNY   37  14  38 NW8       30.53F
6HR MIN TEMP:  32; 6HR MAX TEMP:  38;

$$

ARZ009-017-025-026-028-081900-
NORTHEAST ARKANSAS

CITY           SKY/WX    TMP DP  RH WIND       PRES   REMARKS
CORNING        FAIR      34  14  44 NW12      30.54F WCI  25
JONESBORO      MOSUNNY   33  14  45 N9G18     30.54F WCI  25
6HR MIN TEMP:  29; 6HR MAX TEMP:  34;

NEWPORT        MOSUNNY   36  12  37 NW15        N/A
6HR MIN TEMP:  28; 6HR MAX TEMP:  36;

WALNUT RIDGE   MOSUNNY   34  12  40 NW14      30.55F WCI  24
6HR MIN TEMP:  27; 6HR MAX TEMP:  34;

BLYTHEVILLE    MOSUNNY   40  20  44 N14       30.53F
6HR MIN TEMP:  31; 6HR MAX TEMP:  40;

NW BLYTHEVILLE PTSUNNY   34  18  51 NW12G23   30.53F WCI  25
$$

ARZ022-023-033-042-044-081900-
CENTRAL ARKANSAS

CITY           SKY/WX    TMP DP  RH WIND       PRES   REMARKS
LITTLE ROCK    PTSUNNY   39  15  37 N15       30.57F
6HR MIN TEMP:  33; 6HR MAX TEMP:  40;

N LITTLE ROCK    N/A     37  16  42 N8G16     30.58F
6HR MIN TEMP:  32; 6HR MAX TEMP:  37;

JACKSONVILLE   MOSUNNY   40  16  37 N10G17    30.55F
SEARCY         MOSUNNY   38  13  35 NW10      30.57F
6HR MIN TEMP:  32; 6HR MAX TEMP:  38;

HOT SPRINGS    MOSUNNY   40  19  43 NW7       30.55F
6HR MIN TEMP:  35; 6HR MAX TEMP:  42;

RUSSELLVILLE   MOSUNNY   35  13  40 NW8G18    30.59F WCI  29
6HR MIN TEMP:  30; 6HR MAX TEMP:  35;

CLINTON        FAIR      34  12  40 NW13      30.57F WCI  25
$$

ARZ036-081900-
EAST ARKANSAS

CITY           SKY/WX    TMP DP  RH WIND       PRES   REMARKS
WEST MEMPHIS   PTSUNNY   36  17  46 N13       30.53F
6HR MIN TEMP:  32; 6HR MAX TEMP:  36;

$$

ARZ050-053-066-070-073-081900-
SOUTHWEST ARKANSAS

CITY           SKY/WX    TMP DP  RH WIND       PRES   REMARKS
ARKADELPHIA    FAIR      39  25  57 N9        30.57F
6HR MIN TEMP:  37; 6HR MAX TEMP:  39;

CAMDEN         MIX PCPN  41  23  48 N7        30.57F
TEXARKANA      PTSUNNY   40  24  53 N9        30.58F
6HR MIN TEMP:  37; 6HR MAX TEMP:  41;

EL DORADO      MOSUNNY   42  26  53 N10       30.55F
6HR MIN TEMP:  37; 6HR MAX TEMP:  43;

DE QUEEN       MOSUNNY   39  18  42 N10G18    30.58F
6HR MIN TEMP:  34; 6HR MAX TEMP:  39;

$$

ARZ056-057-069-081900-
SOUTHEAST ARKANSAS

CITY           SKY/WX    TMP DP  RH WIND       PRES   REMARKS
PINE BLUFF     CLOUDY    38  22  52 N8G18     30.56F
6HR MIN TEMP:  36; 6HR MAX TEMP:  39;

STUTTGART      CLOUDY    37  19  48 N13       30.56S
6HR MIN TEMP:  34; 6HR MAX TEMP:  37;

MONTICELLO     MOSUNNY   42  26  53 VRB6      30.54F
6HR MIN TEMP:  38; 6HR MAX TEMP:  42;


$$






USA.gov is the U.S. government's official web portal to all federal, state and local government web resources and services.